User: anonymous   Login
Location: Unspecified
(50.0959°N, 14.3921°E)
Time: 02:27:06
(UTC+02:00)
Language:

AIM - Orbit

View from above orbital plane
View from above orbital plane
View from above satellite
View from above satellite

Ground track
Ground track

The orbit data is extracted from the following two-line orbital elements,

1 31304U 07015A   19196.63410041  .00000478  00000-0  31014-4 0  9991
2 31304  97.9534  60.8855 0006667  75.9535 284.2436 15.13144323669592
Epoch (UTC): 15 July 2019 15:13:06
Eccentricity: 0.0006667
inclination: 97.9534°
perigee height: 522 km
apogee height: 531 km
right ascension of ascending node: 60.8855°
argument of perigee: 75.9535°
revolutions per day: 15.13144323
mean anomaly at epoch: 284.2436°
orbit number at epoch: 66959

The dashed part of the orbit path shows where the satellite is in the earth's shadow,  

DLR